Weather History for Shoreham, United Kingdom

Change the Weather History Date:

Tuesday, October 4, 2011

  Actual Average Record
Temperature  
Mean Temperature 61 °F -  
Max Temperature 65 °F 56 °F 65 °F (2013)
Min Temperature 57 °F 48 °F 33 °F (2008)
Degree Days  
Heating Degree Days 4    
Growing Degree Days 11 (Base 50)    
Moisture  
Dew Point 57 °F    
Average Humidity 80    
Maximum Humidity 89    
Minimum Humidity 73    
Precipitation  
Precipitation 0.00 in - - ()
Sea Level Pressure  
Sea Level Pressure 30.17 in    
Wind  
Wind Speed 12 mph ()    
Max Wind Speed 21 mph    
Max Gust Speed 30 mph    
Visibility 6.2 miles    
Events      
Averages and records for this station are not official NWS values.
T = Trace of Precipitation, MM = Missing Value Source: Averaged Metar Reports

Daily Weather History Graph

Daily Weather History Graph

Search for Another Location

Airport:

Trip Planner

Search our weather history database for the weather conditions in past years. The results will help you decide how hot, cold, wet, or windy it might be!

Date:

Astronomy

Oct. 04, 2011 Rise Set
Actual Time 7:05 AM BST 6:33 PM BST
Civil Twilight 6:32 AM BST 7:06 PM BST
Nautical Twilight 5:54 AM BST 7:44 PM BST
Astronomical Twilight 5:15 AM BST 8:23 PM BST
Moon 3:06 PM BST (10/4) 11:57 PM BST (10/4)
Length of Visible Light 12h 33m
Length of Day
11h 27m
First Quarter, 53% of the Moon is Illuminated
Oct 4
First Quarter
Oct 12
Full
Oct 20
Last Quarter
Oct 26
New
Nov 2
First Quarter

Hourly Weather History & Observations

Time (BST) Temp. Dew Point Humidity Pressure Visibility Wind Dir Wind Speed Gust Speed Precip Events Conditions
12:50 AM 63 °F 60 °F 89% 30.11 in - WSW 15.0 mph - -  
3:50 AM 60 °F 57 °F 88% 30.12 in - WSW 3.5 mph - -  
6:50 AM 60 °F 56 °F 81% 30.14 in - WNW 6.9 mph - -  
8:20 AM 59.0 °F 55.4 °F 88% 30.15 in 6.2 mi West 6.9 mph - N/A   Mostly Cloudy
8:50 AM 60.8 °F 55.4 °F 82% 30.15 in 6.2 mi West 10.4 mph - N/A   Scattered Clouds
9:20 AM 62.6 °F 57.2 °F 82% 30.15 in 6.2 mi West 12.7 mph - N/A   Mostly Cloudy
9:50 AM 62 °F 56 °F 74% 30.19 in - West 11.5 mph - -  
9:50 AM 62.6 °F 55.4 °F 77% 30.18 in 6.2 mi West 11.5 mph - N/A   Mostly Cloudy
10:20 AM 62.6 °F 57.2 °F 82% 30.18 in 6.2 mi West 11.5 mph - N/A   Mostly Cloudy
10:50 AM 62.6 °F 57.2 °F 82% 30.18 in 6.2 mi West 11.5 mph - N/A   Mostly Cloudy
11:20 AM 64.4 °F 57.2 °F 77% 30.18 in 6.2 mi West 13.8 mph - N/A   Mostly Cloudy
11:50 AM 64.4 °F 55.4 °F 73% 30.18 in 6.2 mi WSW 13.8 mph - N/A   Mostly Cloudy
12:50 PM 64 °F 57 °F 73% 30.18 in - WSW 18.4 mph - -  
12:50 PM 64.4 °F 57.2 °F 77% 30.18 in 6.2 mi WSW 18.4 mph - N/A   Mostly Cloudy
1:20 PM 64.4 °F 57.2 °F 77% 30.18 in 6.2 mi WSW 17.3 mph - N/A   Mostly Cloudy
1:50 PM 64.4 °F 57.2 °F 77% 30.15 in 6.2 mi SW 20.7 mph - N/A   Scattered Clouds
2:50 PM 64.4 °F 57.2 °F 77% 30.18 in 6.2 mi WSW 18.4 mph - N/A   Scattered Clouds
3:20 PM 64.4 °F 57.2 °F 77% 30.18 in 6.2 mi WSW 18.4 mph 29.9 mph N/A   Scattered Clouds
3:50 PM 64 °F 58 °F 73% 30.17 in - WSW 19.6 mph - -  
3:50 PM 64.4 °F 57.2 °F 77% 30.15 in 6.2 mi WSW 18.4 mph - N/A   Scattered Clouds
4:20 PM 64.4 °F 57.2 °F 77% 30.18 in 6.2 mi WSW 17.3 mph - N/A   Mostly Cloudy
4:50 PM 62.6 °F 59.0 °F 88% 30.15 in 6.2 mi WSW 18.4 mph - N/A   Mostly Cloudy
5:20 PM 62.6 °F 59.0 °F 88% 30.18 in 6.2 mi WSW 18.4 mph - N/A   Mostly Cloudy
5:50 PM 62.6 °F 57.2 °F 82% 30.18 in 6.2 mi WSW 18.4 mph - N/A   Scattered Clouds
6:50 PM 62 °F 59 °F 87% 30.18 in - WSW 12.7 mph - -  
9:50 PM 63 °F 59 °F 84% 30.19 in - WSW 15.0 mph - -